Location: Big Prairie
(40.6673°N, 82.0952°W)
Time: 19:27:03
(UTC+00:00)

USA 276 - Pass Details

Date: 04 July 2022
Orbit: 366 x 369 km, 50.0° (Epoch: 12 July)

Event Time Altitude Azimuth Distance (km) Brightness Sun altitude
Rises 04:02:18 0° 303° (WNW) 2,208 6.8 -23.1°
Reaches altitude 10° 04:04:59 10° 329° (NNW) 1,360 5.9 -23.3°
Maximum altitude 04:06:48 15° 6° (N) 1,119 5.2 -23.4°
Drops below altitude 10° 04:08:37 10° 43° (NE) 1,360 5.1 -23.5°
Enters shadow 04:08:59 - 48° (NE) 1,450 5.2 -23.5°
